This is the latest recevied weather packets stored in our database for station/object TVARMINN. If no packets are shown the sender has not sent any weather packets the latest 10 day(s).
| Time | Temp. | Humidity | Pressure | Rain* | Wind** | Luminosity | Snow |
|---|---|---|---|---|---|---|---|
| 1777474013 | 8.89° C | 35% | 1025 hPa | 0 mm | - | - | - |
| 1777472813 | 8.89° C | 35% | 1025.1 hPa | 0 mm | - | - | - |
| 1777471612 | 8.33° C | 36% | 1025.1 hPa | 0 mm | - | - | - |
| 1777470412 | 9.44° C | 35% | 1025 hPa | 0 mm | - | - | - |
| 1777469213 | 9.44° C | 37% | 1025.3 hPa | 0 mm | - | - | - |
| 1777468012 | 9.44° C | 36% | 1025.5 hPa | 0 mm | - | - | - |
| 1777466812 | 9.44° C | 26% | 1025.4 hPa | 0 mm | - | - | - |
| 1777465612 | 9.44° C | 27% | 1025.7 hPa | 0 mm | - | - | - |
| 1777464412 | 8.89° C | 27% | 1025.9 hPa | 0 mm | - | - | - |
| 1777463212 | 8.89° C | 28% | 1025.8 hPa | 0 mm | - | - | - |
| 1777462012 | 8.33° C | 29% | 1026 hPa | 0 mm | - | - | - |
| 1777460812 | 8.33° C | 30% | 1026.1 hPa | 0 mm | - | - | - |
| 1777459611 | 7.78° C | 31% | 1026.3 hPa | 0 mm | - | - | - |
| 1777458413 | 7.22° C | 32% | 1026.2 hPa | 0 mm | - | - | - |
| 1777457211 | 7.78° C | 33% | 1026.3 hPa | 0 mm | - | - | - |
| 1777456012 | 7.22° C | 34% | 1026.3 hPa | 0 mm | - | - | - |
| 1777454811 | 7.22° C | 36% | 1026.5 hPa | 0 mm | - | - | - |
| 1777453611 | 6.67° C | 37% | 1026.6 hPa | 0 mm | - | - | - |
| 1777452411 | 6.67° C | 36% | 1026.6 hPa | 0 mm | - | - | - |
| 1777451211 | 5.56° C | 36% | 1026.6 hPa | 0 mm | - | - | - |
| 1777450011 | 6.11° C | 38% | 1026.6 hPa | 0 mm | - | - | - |
| 1777448811 | 5.56° C | 37% | 1026.6 hPa | 0 mm | - | - | - |
| 1777447611 | 5° C | 37% | 1026.6 hPa | 0 mm | - | - | - |
| 1777446411 | 5.56° C | 40% | 1026.6 hPa | 0 mm | - | - | - |
| 1777445211 | 4.44° C | 44% | 1026.6 hPa | 0 mm | - | - | - |
* Rain latest hour (hover to see other rain measurements)
** Current wind speed in m/s (hover to see current wind gust speed)